DELTA 1 DEB, 40765

Orbit data source: Space-Track

DELTA 1 DEB, 40765 is space debris in SSO originally from a launch on Thu, 29 Jul 1976 UTC launched from the Air Force Western Test Range (AFWTR). Debris objects in space refer to the collection of defunct objects orbiting the Earth. Examples of debris include non-operational satellites, rocket bodies, and fragments generated from explosions, collisions, or faulty payload assembly.

Loading next visibility...
Identifier
40765, 1976-077GJ
Orbit
SSO
Country
Flag of USUS
Related business
Manufacturer
Unknown
Mission
Spacecraft
Bus & Motor
Unknown
Mass
Unknown
Launch date (UTC)
1976-07-29 (50 years ago)
Launch vehicle
Unknown
Launch site
Air Force Western Test Range (AFWTR)
Object type
Payload
Rocket body
Debris
Shape & HBR
Unknown shape, 0.1 m
Radar Cross Section
Medium (>0.1 m² and <1 m²)

Expand to show TLE details & history
Last TLE update: 5 days ago

TLE from 5 days ago
0 DELTA 1 DEB
1 40765U 76077GJ  26251.45271183  .00000015  00000-0  42642-3 0  9993
2 40765 102.1704 253.7016 0026454 266.6859  93.1181 12.45460751581659
Epoch: 2026-09-08T10:51Z
TLE epoch observation values (Epoch: 2026-09-08T10:51:54.302Z)
Latitude
0.00005°
Longitude
103.20642°
Altitude
1,487.275 km
Speed
7.12 km/s
True Right ascension
16h 54m 48s
True Declination
0° 00' 00"
Sunlit
Object was in daylight at epoch
Visualization orbit readout
Latitude
Unknown
Longitude
Unknown
Altitude
Unknown
Speed
Unknown
Apparent Right ascension
Unknown
Apparent Declination
Unknown
Sunlit
N/A
Visualization observer readout
Local Sidereal Time
07:42:32
Azimuth
Unknown
Elevation
Unknown
Doppler factor
Unknown
Orbital elements
Apogee altitude
1,501.908 km
Perigee altitude
1,460.326 km
Semi-major axis
7,859.254 km
Eccentricity
0.00265
Inclination
102.1704°
RAAN
253.7016°
Arg. of periapsis
266.6859°
True anomaly
93.42074°
Mean anomaly
93.1181°
Eccentric anomaly
93.26942°
Mean motion
3.11509 °/min
Orbital period
115.57 mins
BSTAR
0.00042642
Loading maneuver chart data...
Computing Atmospheric mass density...
Loading historical data...
Loading historical data...
Loading historical data...
Loading historical data...
Loading historical data...
Loading historical data...
Loading historical data...

Documentation

Showing up to 5 results
|